Weather History for KGCM - October, 2012

Change the Weather History Date:

Thursday, October 11, 2012

  Actual Average (KTUL) Record (KTUL)
Temperature  
Mean Temperature 66 °F 63 °F  
Max Temperature 73 °F 75 °F 94 °F (1975)
Min Temperature 59 °F 52 °F 30 °F (1906)
Degree Days  
Heating Degree Days 0 4  
Month to date heating degree days 37  
Since 1 July heating degree days 61  
Cooling Degree Days 1 2  
Month to date cooling degree days 35  
Year to date cooling degree days 2000  
Growing Degree Days 16 (Base 50)    
Moisture  
Dew Point 53 °F    
Average Humidity 64    
Maximum Humidity 78    
Minimum Humidity 48    
Precipitation  
Precipitation 0.00 in 0.12 in 2.20 in (1973)
Month to date precipitation 1.36  
Year to date precipitation 33.10  
Sea Level Pressure  
Sea Level Pressure 30.13 in    
Wind  
Wind Speed 7 mph (SSE)    
Max Wind Speed 15 mph    
Max Gust Speed 22 mph    
Visibility 10 miles    
Events      
T = Trace of Precipitation, MM = Missing Value Source: NWS Daily Summary

Daily Weather History Graph

Daily Weather History Graph

Search for Another Location

Airport or City:

Trip Planner

Search our weather history database for the weather conditions in past years. The results will help you decide how hot, cold, wet, or windy it might be!

Date:

Astronomy

Oct. 11, 2012 Rise Set
Actual Time 7:25 AM CDT 6:50 PM CDT
Civil Twilight 7:00 AM CDT 7:16 PM CDT
Nautical Twilight 6:30 AM CDT 7:46 PM CDT
Astronomical Twilight 6:00 AM CDT 8:15 PM CDT
Moon 3:12 AM CDT (10/11) 4:21 PM CDT (10/11)
Length of Visible Light 12h 16m
Length of Day
11h 24m
Waning Crescent, 18% of the Moon is Illuminated
Oct 11
Waning Crescent
Oct 15
New
Oct 21
First Quarter
Oct 29
Full
Nov 6
Last Quarter

Hourly Weather History & Observations

Time (CDT) Temp. Dew Point Humidity Pressure Visibility Wind Dir Wind Speed Gust Speed Precip Events Conditions
12:15 AM 60.8 °F 41.0 °F 48% 30.17 in 10.0 mi ESE 5.8 mph - N/A   Overcast
12:35 AM 59.0 °F 41.0 °F 51% 30.16 in 10.0 mi ESE 5.8 mph - N/A   Overcast
12:55 AM 60.8 °F 41.0 °F 48% 30.16 in 10.0 mi SE 6.9 mph - N/A   Overcast
1:15 AM 60.8 °F 41.0 °F 48% 30.16 in 10.0 mi SE 6.9 mph - N/A   Overcast
1:55 AM 60.8 °F 42.8 °F 52% 30.15 in 10.0 mi SE 6.9 mph - N/A   Overcast
2:15 AM 59.0 °F 42.8 °F 55% 30.15 in 10.0 mi SSE 4.6 mph - N/A   Mostly Cloudy
2:35 AM 59.0 °F 44.6 °F 59% 30.15 in 10.0 mi SE 4.6 mph - N/A   Mostly Cloudy
2:55 AM 59.0 °F 44.6 °F 59% 30.15 in 10.0 mi SE 4.6 mph - N/A   Mostly Cloudy
3:15 AM 59.0 °F 44.6 °F 59% 30.15 in 10.0 mi SE 4.6 mph - N/A   Mostly Cloudy
3:35 AM 59.0 °F 44.6 °F 59% 30.14 in 10.0 mi SE 4.6 mph - N/A   Overcast
3:55 AM 59.0 °F 44.6 °F 59% 30.14 in 10.0 mi SSE 4.6 mph - N/A   Mostly Cloudy
4:15 AM 59.0 °F 44.6 °F 59% 30.14 in 10.0 mi SSE 4.6 mph - N/A   Overcast
4:35 AM 60.8 °F 44.6 °F 55% 30.14 in 10.0 mi SSE 4.6 mph - N/A   Mostly Cloudy
4:55 AM 60.8 °F 44.6 °F 55% 30.14 in 10.0 mi SSE 4.6 mph - N/A   Mostly Cloudy
5:15 AM 60.8 °F 44.6 °F 55% 30.14 in 10.0 mi SSE 4.6 mph - N/A   Mostly Cloudy
5:35 AM 60.8 °F 44.6 °F 55% 30.14 in 10.0 mi SSE 5.8 mph - N/A   Mostly Cloudy
5:55 AM 60.8 °F 44.6 °F 55% 30.14 in 10.0 mi SSE 5.8 mph - N/A   Mostly Cloudy
6:15 AM 60.8 °F 44.6 °F 55% 30.15 in 10.0 mi SSE 5.8 mph - N/A   Mostly Cloudy
6:35 AM 60.8 °F 44.6 °F 55% 30.15 in 10.0 mi SSE 8.1 mph - N/A   Overcast
6:55 AM 60.8 °F 44.6 °F 55% 30.15 in 10.0 mi SSE 6.9 mph - N/A   Overcast
7:15 AM 60.8 °F 44.6 °F 55% 30.15 in 10.0 mi SSE 8.1 mph - N/A   Overcast
7:35 AM 60.8 °F 44.6 °F 55% 30.16 in 10.0 mi SSE 8.1 mph - N/A   Overcast
7:55 AM 60.8 °F 46.4 °F 59% 30.16 in 10.0 mi SSE 8.1 mph - N/A   Overcast
8:15 AM 60.8 °F 46.4 °F 59% 30.16 in 10.0 mi SSE 8.1 mph - N/A   Overcast
8:35 AM 60.8 °F 46.4 °F 59% 30.16 in 10.0 mi SSE 8.1 mph - N/A   Overcast
8:55 AM 60.8 °F 46.4 °F 59% 30.16 in 10.0 mi SSE 6.9 mph - N/A   Overcast
9:15 AM 60.8 °F 48.2 °F 63% 30.17 in 10.0 mi South 8.1 mph - N/A   Overcast
9:35 AM 60.8 °F 48.2 °F 63% 30.17 in 10.0 mi South 12.7 mph - N/A   Overcast
9:55 AM 62.6 °F 48.2 °F 59% 30.17 in 10.0 mi South 11.5 mph - N/A   Overcast
10:15 AM 62.6 °F 48.2 °F 59% 30.18 in 10.0 mi South 10.4 mph 18.4 mph N/A   Overcast
10:35 AM 62.6 °F 50.0 °F 63% 30.17 in 10.0 mi SSE 11.5 mph 18.4 mph N/A   Overcast
11:15 AM 62.6 °F 50.0 °F 63% 30.18 in 10.0 mi South 10.4 mph 17.3 mph N/A   Overcast
11:35 AM 62.6 °F 51.8 °F 68% 30.17 in 10.0 mi South 15.0 mph - N/A   Overcast
11:55 AM 64.4 °F 51.8 °F 64% 30.16 in 10.0 mi South 11.5 mph 16.1 mph N/A   Overcast
12:15 PM 64.4 °F 53.6 °F 68% 30.16 in 10.0 mi SSW 11.5 mph - N/A   Overcast
12:35 PM 68.0 °F 53.6 °F 60% 30.16 in 10.0 mi SSW 12.7 mph 16.1 mph N/A   Mostly Cloudy
12:55 PM 66.2 °F 55.4 °F 68% 30.15 in 10.0 mi South 12.7 mph - N/A   Scattered Clouds
1:15 PM 68.0 °F 55.4 °F 64% 30.14 in 10.0 mi South 9.2 mph - N/A   Scattered Clouds
1:35 PM 69.8 °F 55.4 °F 60% 30.13 in 10.0 mi South 12.7 mph 16.1 mph N/A   Mostly Cloudy
1:55 PM 68.0 °F 57.2 °F 68% 30.12 in 10.0 mi SSW 11.5 mph - N/A   Mostly Cloudy
2:15 PM 68.0 °F 59.0 °F 73% 30.12 in 10.0 mi SSW 10.4 mph - N/A   Overcast
2:35 PM 69.8 °F 59.0 °F 68% 30.11 in 10.0 mi South 9.2 mph - N/A   Overcast
2:55 PM 71.6 °F 59.0 °F 64% 30.09 in 10.0 mi South 12.7 mph - N/A   Mostly Cloudy
3:35 PM 73.4 °F 59.0 °F 61% 30.08 in 10.0 mi South 13.8 mph - N/A   Scattered Clouds
3:55 PM 71.6 °F 60.8 °F 69% 30.08 in 10.0 mi South 12.7 mph - N/A   Scattered Clouds
4:15 PM 73.4 °F 60.8 °F 65% 30.07 in 10.0 mi South 13.8 mph 21.9 mph N/A   Mostly Cloudy
4:35 PM 71.6 °F 60.8 °F 69% 30.08 in 10.0 mi SSE 10.4 mph 20.7 mph N/A   Overcast
4:55 PM 71.6 °F 62.6 °F 73% 30.07 in 10.0 mi South 12.7 mph 17.3 mph N/A   Overcast
5:15 PM 73.4 °F 62.6 °F 69% 30.07 in 10.0 mi SSE 10.4 mph - N/A   Overcast
5:35 PM 71.6 °F 60.8 °F 69% 30.07 in 10.0 mi South 9.2 mph - N/A   Overcast
5:55 PM 71.6 °F 60.8 °F 69% 30.06 in 10.0 mi SSE 9.2 mph - N/A   Overcast
6:15 PM 71.6 °F 60.8 °F 69% 30.06 in 10.0 mi SSE 9.2 mph - N/A   Overcast
6:35 PM 71.6 °F 60.8 °F 69% 30.07 in 10.0 mi SSE 5.8 mph - N/A   Overcast
6:55 PM 71.6 °F 60.8 °F 69% 30.07 in 10.0 mi SSE 5.8 mph - N/A   Overcast
7:15 PM 68.0 °F 60.8 °F 78% 30.07 in 10.0 mi SSE 6.9 mph - N/A   Mostly Cloudy
7:35 PM 69.8 °F 60.8 °F 73% 30.08 in 10.0 mi SSE 5.8 mph - N/A   Overcast
7:55 PM 69.8 °F 60.8 °F 73% 30.08 in 10.0 mi SSE 5.8 mph - N/A   Overcast
8:15 PM 69.8 °F 60.8 °F 73% 30.09 in 10.0 mi SSE 4.6 mph - N/A   Overcast
8:35 PM 69.8 °F 60.8 °F 73% 30.10 in 10.0 mi South 4.6 mph - N/A   Overcast
8:55 PM 69.8 °F 60.8 °F 73% 30.11 in 10.0 mi Calm Calm - N/A   Overcast
9:15 PM 69.8 °F 60.8 °F 73% 30.12 in 10.0 mi Calm Calm - N/A   Mostly Cloudy
9:35 PM 69.8 °F 60.8 °F 73% 30.12 in 10.0 mi ESE 5.8 mph - N/A   Mostly Cloudy
9:55 PM 69.8 °F 60.8 °F 73% 30.13 in 10.0 mi SE 8.1 mph - N/A   Overcast
10:15 PM 69.8 °F 60.8 °F 73% 30.14 in 10.0 mi SE 8.1 mph - N/A   Mostly Cloudy
10:35 PM 69.8 °F 60.8 °F 73% 30.14 in 10.0 mi ESE 6.9 mph - N/A   Mostly Cloudy
10:55 PM 69.8 °F 60.8 °F 73% 30.15 in 10.0 mi SE 6.9 mph - N/A   Mostly Cloudy
11:35 PM 68.0 °F 60.8 °F 78% 30.15 in 10.0 mi SSE 8.1 mph - N/A   Scattered Clouds
11:55 PM 68.0 °F 60.8 °F 78% 30.15 in 10.0 mi SE 8.1 mph - N/A   Scattered Clouds